Racecast

Zoe Tamvada

Saratoga Springs (NY) · 9 · NY DA2 DAALBANY · Compare head to head

Athlete rating 126.6 2026 TF season
Best race 143.8 TF
Races 47
Seasons 4 2023 — 2026

RankedNation #8375·NY #342·NY DA #154·2 #60·2 DA #43·Team #8 ?

Rating scale ?
Speed rating — all races

Cross Country

XC speed rating

2024 XC 139.2

Saratoga Springs (NY) · Grade 8

Date Meet Event Result Place Rating Difficulty PR/SR Flags
2024-11-23 Bowdoin Park 5000m 20:06.2 69th · 3rd on team 142.6 +0.061 ★CR CSR RSR
2024-11-08 Queensbury HS 4828m 19:01.5 14th · 4th on team 141.2 +0.027 ★CR CSR RSR
2024-10-26 Saratoga State Park 4828m 18:56.1 14th · 5th on team 136.9 +0.007 ★PR ★CR SR CSR
2024-10-12 Saratoga State Park 4828m 19:11.9 16th · 4th on team 137.0 +0.007 PR CR SR CSR
2024-09-07 Fonda-Fultonville HS 5000m 19:40.6 3rd · 3rd on team 138.4 +0.019 ★PR ★CR SR CSR RSR

2023 XC 113.5

Saratoga Springs (NY) · Grade 7

Date Meet Event Result Place Rating Difficulty PR/SR Flags
2023-10-14 Saratoga Spa Park 3000m 12:41.1 6th · 4th on team 97.5 +0.020 ★PR ★CR SR CSR
2023-09-23 Goddard Memorial State Park 5000m 20:54.1 4th · 4th on team 129.5 -0.002 PR ★CR R SR CSR RSR

Track & Field

TF speed rating

2026 TF 122.7

Saratoga Springs (NY) · Grade 9

Date Meet Event Result Place Rating Difficulty PR/SR Flags
2026-05-27 Section 2 Group 1 Championships 3000m 11:12.22 10th · 3rd on team 122.9 -0.028
2026-05-20 Girls Suburban Council Varsity and JV Championships 3000m 10:46.75 10th · 2nd on team 127.3 -0.031 SR RSR
2026-05-11 Saratoga @ Schenectady (GIRLS) 800m 2:41.83 4th · 3rd on team 112.3 -0.040
2026-05-11 Saratoga @ Schenectady (GIRLS) 1500m 5:10.48 1st · 1st on team 121.2 -0.040
2026-04-29 Saratoga vs Colonie vs CBA 800m 2:31.21 4th · 3rd on team 121.6 -0.029 ★PR SR
2026-04-29 Saratoga vs Colonie vs CBA 1500m 5:04.65 4th · 4th on team 125.0 -0.029 SR
2026-04-25 Luciano Memorial Invitational 3000m 10:56.02 8th · 1st on team 125.0 -0.036
2026-04-17 2026 New York Relays 3000m 10:49.16 11th · 2nd on team 126.2 -0.037 SR RSR

2025 TF 137.3

Kinetic Running (NY) · Grade 8

Date Meet Event Result Place Rating Difficulty PR/SR Flags
2025-06-19 New Balance Nationals Outdoor 3000m 11:11.09 58th · 1st on team 131.5 -0.045
2025-06-19 New Balance Nationals Outdoor 2miles 12:00.51 61st · 1st on team 132.3 -0.045
2025-05-28 Section 2 Group 1 Championships 3000m 11:17.95 9th · 2nd on team 132.1 -0.028
2025-05-20 Girls Suburban Council Varsity and JV Championship 3000m 10:35.06 6th · 1st on team 139.8 -0.031
2025-05-17 William F. Eddy Jr. Track & Field Meet 3000m 11:08.36 7th · 2nd on team 132.7 -0.038
2025-05-17 William F. Eddy Jr. Track & Field Meet 2025 3000m 11:08.36 7th · 2nd on team 132.2 -0.040
2025-05-13 Albany vs Shaker vs Saratoga vs Columbia Girls 3000m 10:46.08 1st · 1st on team 139.3 -0.028
2025-04-26 Luciano Memorial Invitational 3000m 10:33.67 3rd · 2nd on team 140.4 -0.036 ★PR SR
2025-04-09 Saratoga vs Burnt Hills Meet 3000m 10:39.31 2nd · 2nd on team 140.2 -0.029
2025-03-16 Nike Indoor Nationals 1500m 4:59.56 14th · 2nd on team 136.3 -0.041 ★PR SR
2025-03-16 Nike Indoor Nationals 3000m 10:33.74 22nd · 3rd on team 142.1 -0.041 PR SR
2025-03-16 Nike Indoor Nationals 2miles 11:18.21 21st · 3rd on team 143.8 -0.041 ★PR ★R SR RSR
2025-03-16 Nike Indoor Nationals 1mile 5:20.66 15th · 2nd on team 138.0 -0.041 ★PR SR
2025-02-22 Section 2 State Qualifier 3000m 10:56.31 7th · 3rd on team 138.8 -0.011
2025-02-17 Section 2 Division I Championship 3000m 10:36.33 2nd · 1st on team 143.2 -0.011 PR R SR RSR
2025-02-01 Ocean Breeze Invitational 1mile 5:29.58 7th · 2nd on team 134.0 -0.043 PR SR RSR

2024 TF 134.3

Kinetic Running (NY) · Grade 7

Date Meet Event Result Place Rating Difficulty PR/SR Flags
2024-06-16 New Balance Nationals Outdoor 2miles 11:52.66 30th · 2nd on team 133.5 -0.045 PR SR
2024-06-16 New Balance Nationals Outdoor 3000m 11:05.53 28th · 2nd on team 132.3 -0.045
2024-05-18 William F. Eddy Jr. Track & Field Invitational 3000m 11:01.94 10th · 4th on team 134.1 -0.040
2024-05-16 Coed Suburban JV Championships 3000m 10:40.05 1st · 1st on team 138.0 -0.043
2024-05-08 Bethlehem vs Saratoga vs Shaker Girls 3000m 11:24.71 2nd · 2nd on team 132.2 -0.017
2024-05-01 Saratoga vs Shen Girls 3000m 11:19.43 3rd · 3rd on team 131.5 -0.031
2024-05-01 Saratoga vs Shen Girls 1500m 5:18.97 5th · 5th on team 129.2 -0.031 PR SR
2024-04-13 CBA-La Salle Relays 1500m 5:26.62 2nd · 1st on team 128.5 -0.021
2024-02-24 Ocean Breeze Elite Invitational 3000m 11:07.37 9th · 4th on team 134.9 -0.043
2024-02-18 Section 2 State Qualifier Shot Put and Weight Throw 3000m 10:39.3 5th · 3rd on team 142.7 -0.011
2024-02-10 Section 2 State Qualifier 3000m 10:39.3 5th · 3rd on team 142.7 -0.011 PR R SR RSR
2024-01-21 Suburban Council Freshman Championships 3000m 11:25.69 2nd · 2nd on team 133.0 -0.011
2024-01-13 Utica Invitational 3000m 11:08.48 2nd · 2nd on team 133.6 -0.040
2024-01-07 Freedom Games 3000m 10:47.69 5th · 4th on team 138.9 -0.043 PR R SR RSR
2023-12-16 TCITL League Meet 2c 1500m 5:21.47 2nd · 2nd on team 131.1 -0.033 PR SR
2023-12-10 TCITL LM 2B 3000m 11:31.1 7th · 6th on team 132.1 -0.011 PR R SR RSR